Location: Ohmer (historical)
(38.0096°N, 122.0227°W)
Time: 01:48:39
(UTC+00:00)

Intercosmos 25 Rocket - Pass Details

Date: 14 February 2026
Orbit: 435 x 2957 km, 82.6° (Epoch: 13 March)

Event Time Altitude Azimuth Distance (km) Brightness Sun altitude
Exits shadow 14:00:17 16° 309° (NW) 1,226 4.6 -12.2°
Maximum altitude 14:01:53 23° 268° (W) 984 4.0 -11.9°
Drops below altitude 10° 14:04:38 10° 213° (SSW) 1,656 5.5 -11.3°
Sets 14:07:11 0° 198° (SSW) 2,708 6.7 -10.8°
